Weather History for Louisville Bowman, KY

Change the Weather History Date:

Sunday, June 1, 2014

  Actual Average Record
Temperature  
Mean Temperature 77 °F 71 °F  
Max Temperature 90 °F 81 °F 96 °F (1951)
Min Temperature 63 °F 61 °F 42 °F (1966)
Degree Days  
Heating Degree Days 0 1  
Month to date heating degree days 0 1  
Since 1 June heating degree days 0 1  
Since 1 July heating degree days 4706 4266  
Cooling Degree Days 12 7  
Month to date cooling degree days 12 7  
Year to date cooling degree days 267 154  
Since 1 June cooling degree days 12 7  
Growing Degree Days 26 (Base 50)    
Moisture  
Dew Point 64 °F    
Average Humidity 60    
Maximum Humidity 74    
Minimum Humidity 46    
Precipitation  
Precipitation 0.03 in 0.18 in 0.78 in (1958)
Month to date precipitation 0.03 0.18  
Year to date precipitation 19.57 20.10  
Sea Level Pressure  
Sea Level Pressure 30.09 in    
Wind  
Wind Speed 5 mph (SSW)    
Max Wind Speed 17 mph    
Max Gust Speed 22 mph    
Visibility 10 miles    
Events Rain , Thunderstorm    
T = Trace of Precipitation, MM = Missing Value Source: NWS Daily Summary

Daily Weather History Graph

Daily Weather History Graph

Search for Another Location

Airport:

Trip Planner

Search our weather history database for the weather conditions in past years. The results will help you decide how hot, cold, wet, or windy it might be!

Date:

Astronomy

Jun. 01, 2014 Rise Set
Actual Time 6:21 AM EDT 9:00 PM EDT
Civil Twilight 5:50 AM EDT 9:31 PM EDT
Nautical Twilight 5:11 AM EDT 10:09 PM EDT
Astronomical Twilight 4:28 AM EDT 10:53 PM EDT
Moon 9:50 AM EDT (6/1) 11:57 PM EDT (6/1)
Length of Visible Light 15h 41m
Length of Day
14h 39m
Waxing Crescent, 14% of the Moon is Illuminated
Jun 1
Waxing Crescent
Jun 5
First Quarter
Jun 13
Full
Jun 19
Last Quarter
Jun 27
New

Hourly Weather History & Observations

Time (EDT) Temp. Heat Index Dew Point Humidity Pressure Visibility Wind Dir Wind Speed Gust Speed Precip Events Conditions
12:53 AM 75.9 °F - 54.0 °F 46% 30.10 in 10.0 mi East 6.9 mph - N/A   Clear
1:53 AM 75.0 °F - 54.0 °F 48% 30.10 in 10.0 mi East 4.6 mph - N/A   Clear
2:53 AM 73.0 °F - 54.0 °F 51% 30.10 in 10.0 mi East 3.5 mph - N/A   Clear
3:53 AM 71.1 °F - 54.0 °F 55% 30.10 in 10.0 mi Calm Calm - N/A   Clear
4:53 AM 70.0 °F - 54.0 °F 57% 30.10 in 10.0 mi Calm Calm - N/A   Clear
5:53 AM 66.0 °F - 55.0 °F 68% 30.10 in 10.0 mi NW 3.5 mph - N/A   Clear
6:53 AM 64.0 °F - 55.9 °F 75% 30.11 in 10.0 mi Calm Calm - N/A   Clear
7:53 AM 70.0 °F - 55.9 °F 61% 30.12 in 10.0 mi Calm Calm - N/A   Clear
8:53 AM 73.0 °F - 57.0 °F 57% 30.13 in 10.0 mi SSE 4.6 mph - N/A   Clear
9:53 AM 77.0 °F - 60.8 °F 57% 30.14 in 10.0 mi Variable 4.6 mph - N/A   Clear
10:53 AM 80.1 °F 81.9 °F 64.9 °F 60% 30.12 in 10.0 mi SSW 8.1 mph - N/A   Clear
11:53 AM 82.9 °F 85.8 °F 68.0 °F 60% 30.12 in 10.0 mi South 6.9 mph - N/A   Clear
12:53 PM 84.9 °F 88.2 °F 68.0 °F 57% 30.11 in 10.0 mi SW 5.8 mph - N/A   Partly Cloudy
1:53 PM 87.1 °F 90.6 °F 68.0 °F 53% 30.10 in 10.0 mi South 8.1 mph - N/A   Mostly Cloudy
2:53 PM 87.1 °F 91.3 °F 69.1 °F 55% 30.08 in 10.0 mi South 5.8 mph - N/A   Partly Cloudy
3:53 PM 89.1 °F 93.7 °F 69.1 °F 52% 30.04 in 10.0 mi SSW 10.4 mph - N/A   Partly Cloudy
4:53 PM 82.9 °F 87.0 °F 70.0 °F 65% 30.04 in 10.0 mi South 9.2 mph - N/A Thunderstorm Mostly Cloudy
5:10 PM 84.9 °F 90.1 °F 71.1 °F 63% 30.05 in 10.0 mi SSW 6.9 mph - N/A   Partly Cloudy
5:53 PM 84.0 °F 87.8 °F 69.1 °F 61% 30.04 in 10.0 mi South 9.2 mph - N/A   Clear
6:18 PM 84.0 °F 87.0 °F 68.0 °F 58% 30.05 in 10.0 mi SSE 8.1 mph - N/A Thunderstorm Scattered Clouds
6:38 PM 79.0 °F - 66.9 °F 66% 30.06 in 10.0 mi SW 8.1 mph 21.9 mph N/A   Mostly Cloudy
6:53 PM 78.1 °F - 66.9 °F 68% 30.05 in 10.0 mi SSW 6.9 mph - 0.00 in Rain Light Rain
7:19 PM 77.0 °F - 66.9 °F 71% 30.07 in 10.0 mi SSW 5.8 mph - 0.00 in Thunderstorm Partly Cloudy
7:34 PM 77.0 °F - 66.0 °F 69% 30.07 in 10.0 mi SW 3.5 mph - 0.00 in   Scattered Clouds
7:53 PM 77.0 °F - 66.9 °F 71% 30.06 in 10.0 mi SSW 3.5 mph - 0.00 in   Mostly Cloudy
8:53 PM 77.0 °F - 66.9 °F 71% 30.06 in 10.0 mi WSW 3.5 mph - N/A   Mostly Cloudy
9:53 PM 77.0 °F - 68.0 °F 74% 30.09 in 10.0 mi Calm Calm - N/A   Partly Cloudy
10:53 PM 75.2 °F - 69.8 °F 83% 30.11 in 7.0 mi WSW 3.5 mph - N/A Rain Light Rain
11:53 PM 75.0 °F - 70.0 °F 84% 30.10 in 9.0 mi Variable 3.5 mph - 0.02 in   Mostly Cloudy